| time (UTC) | temp F | wind direction | speed MPH | gust MPH | rain 1hr in | rain 24hr in | rain mn in | humidity % | barometer mb |
| 20260901023047 | 88 | 136 | 0.0 | 1.0 | 0.00 | 0.00 | 0.00 | 51 | 1012.9 |
| 20260901021607 | 88 | 142 | 0.0 | 1.0 | 0.00 | 0.00 | 0.00 | 49 | 1012.6 |
| 20260901020101 | 90 | 142 | 0.0 | 1.0 | 0.00 | 0.00 | 0.00 | 47 | 1012.6 |
| 20260901014549 | 91 | 158 | 0.0 | 2.0 | 0.00 | 0.00 | 0.00 | 45 | 1012.5 |
| 20260901013047 | 92 | 151 | 0.0 | 2.0 | 0.00 | 0.00 | 0.00 | 44 | 1012.4 |
| 20260901011545 | 93 | 151 | 0.0 | 2.0 | 0.00 | 0.00 | 0.00 | 42 | 1012.2 |
| 20260901010045 | 94 | 161 | 1.0 | 2.0 | 0.00 | 0.00 | 0.00 | 41 | 1012.1 |
| 20260901004545 | 96 | 184 | 1.0 | 3.0 | 0.00 | 0.00 | 0.00 | 39 | 1012.0 |
| 20260901003050 | 97 | 158 | 1.0 | 6.0 | 0.00 | 0.00 | 0.00 | 38 | 1012.1 |
| 20260901001558 | 98 | 188 | 4.0 | 8.0 | 0.00 | 0.00 | 0.00 | 36 | 1011.9 |
| 20260901000048 | 98 | 172 | 4.0 | 8.0 | 0.00 | 0.00 | 0.00 | 35 | 1012.0 |
| 20260831234556 | 99 | 180 | 3.0 | 10.0 | 0.00 | 0.00 | 0.00 | 34 | 1011.9 |
| 20260831233048 | 101 | 175 | 6.0 | 11.0 | 0.00 | 0.00 | 0.00 | 33 | 1012.0 |
| 20260831231543 | 101 | 201 | 3.0 | 9.0 | 0.00 | 0.00 | 0.00 | 32 | 1012.0 |
| 20260831230041 | 102 | 259 | 4.0 | 13.0 | 0.00 | 0.00 | 0.00 | 31 | 1011.9 |
| 20260831224539 | 102 | 203 | 3.0 | 9.0 | 0.00 | 0.00 | 0.00 | 32 | 1012.0 |
| 20260831223039 | 101 | 237 | 3.0 | 11.0 | 0.00 | 0.00 | 0.00 | 32 | 1012.0 |
| 20260831221541 | 101 | 159 | 5.0 | 12.0 | 0.00 | 0.00 | 0.00 | 31 | 1012.0 |
| 20260831220039 | 102 | 186 | 5.0 | 13.0 | 0.00 | 0.00 | 0.00 | 31 | 1012.2 |
| 20260831214535 | 103 | 205 | 3.0 | 9.0 | 0.00 | 0.00 | 0.00 | 31 | 1012.2 |
| 20260831213038 | 103 | 162 | 4.0 | 10.0 | 0.00 | 0.00 | 0.00 | 31 | 1012.4 |
| 20260831211535 | 102 | 199 | 6.0 | 15.0 | 0.00 | 0.00 | 0.00 | 32 | 1012.5 |
| 20260831210036 | 103 | 194 | 6.0 | 16.0 | 0.00 | 0.00 | 0.00 | 31 | 1012.6 |
| 20260831204534 | 101 | 229 | 5.0 | 13.0 | 0.00 | 0.00 | 0.00 | 33 | 1012.9 |
| 20260831203035 | 103 | 202 | 3.0 | 14.0 | 0.00 | 0.00 | 0.00 | 32 | 1013.1 |
| 20260831201539 | 103 | 159 | 5.0 | 15.0 | 0.00 | 0.00 | 0.00 | 32 | 1013.1 |
| 20260831200038 | 103 | 205 | 4.0 | 12.0 | 0.00 | 0.00 | 0.00 | 32 | 1013.2 |
| 20260831194552 | 102 | 263 | 3.0 | 12.0 | 0.00 | 0.00 | 0.00 | 33 | 1013.4 |
| 20260831193029 | 102 | 174 | 7.0 | 12.0 | 0.00 | 0.00 | 0.00 | 33 | 1013.4 |
| 20260831191533 | 101 | 175 | 5.0 | 11.0 | 0.00 | 0.00 | 0.00 | 34 | 1013.6 |
| 20260831190026 | 101 | 173 | 4.0 | 9.0 | 0.00 | 0.00 | 0.00 | 35 | 1013.9 |
| 20260831184529 | 101 | 250 | 6.0 | 12.0 | 0.00 | 0.00 | 0.00 | 31 | 1014.1 |
| 20260831183022 | 101 | 178 | 3.0 | 14.0 | 0.00 | 0.00 | 0.00 | 34 | 1014.2 |
| 20260831181524 | 101 | 200 | 6.0 | 11.0 | 0.00 | 0.00 | 0.00 | 34 | 1014.4 |
| 20260831180018 | 100 | 200 | 4.0 | 15.0 | 0.00 | 0.00 | 0.00 | 38 | 1014.5 |
| 20260831174517 | 100 | 173 | 4.0 | 10.0 | 0.00 | 0.00 | 0.00 | 39 | 1014.6 |
| 20260831173011 | 98 | 257 | 4.0 | 12.0 | 0.00 | 0.00 | 0.00 | 41 | 1014.9 |
| 20260831171508 | 98 | 180 | 4.0 | 10.0 | 0.00 | 0.00 | 0.00 | 42 | 1015.3 |
| 20260831170005 | 97 | 215 | 2.0 | 9.0 | 0.00 | 0.00 | 0.00 | 44 | 1015.4 |
| 20260831164504 | 96 | 211 | 4.0 | 9.0 | 0.00 | 0.00 | 0.00 | 45 | 1015.5 |
| 20260831163100 | 96 | 232 | 3.0 | 11.0 | 0.00 | 0.00 | 0.00 | 46 | 1015.6 |
| 20260831163001 | 95 | 234 | 3.0 | 11.0 | 0.00 | 0.00 | 0.00 | 46 | 1015.6 |
| 20260831161556 | 95 | 176 | 4.0 | 10.0 | 0.00 | 0.00 | 0.00 | 47 | 1015.6 |
| 20260831160055 | 94 | 279 | 2.0 | 8.0 | 0.00 | 0.00 | 0.00 | 48 | 1015.6 |
| 20260831154550 | 93 | 136 | 1.0 | 8.0 | 0.00 | 0.00 | 0.00 | 49 | 1015.7 |
| 20260831153047 | 92 | 194 | 2.0 | 8.0 | 0.00 | 0.00 | 0.00 | 51 | 1015.6 |
| 20260831151552 | 91 | 265 | 3.0 | 10.0 | 0.00 | 0.00 | 0.00 | 51 | 1015.6 |
| 20260831150040 | 89 | 217 | 3.0 | 11.0 | 0.00 | 0.00 | 0.00 | 53 | 1015.4 |
| 20260831144548 | 88 | 227 | 5.0 | 8.0 | 0.00 | 0.00 | 0.00 | 56 | 1015.5 |
| 20260831143039 | 87 | 154 | 4.0 | 11.0 | 0.00 | 0.00 | 0.00 | 57 | 1015.6 |
| 20260831141528 | 85 | 211 | 3.0 | 11.0 | 0.00 | 0.00 | 0.00 | 60 | 1015.7 |
| 20260831140026 | 83 | 188 | 2.0 | 7.0 | 0.00 | 0.00 | 0.00 | 63 | 1015.8 |
| 20260831134524 | 81 | 167 | 3.0 | 6.0 | 0.00 | 0.00 | 0.00 | 64 | 1015.6 |
| 20260831133024 | 78 | 203 | 1.0 | 3.0 | 0.00 | 0.00 | 0.00 | 68 | 1015.6 |
| 20260831131522 | 76 | 158 | 0.0 | 2.0 | 0.00 | 0.00 | 0.00 | 72 | 1015.5 |
| 20260831130023 | 75 | 162 | 1.0 | 3.0 | 0.00 | 0.00 | 0.00 | 73 | 1015.3 |
| 20260831124518 | 74 | 179 | 0.0 | 3.0 | 0.00 | 0.00 | 0.00 | 73 | 1014.9 |
| 20260831123016 | 74 | 150 | 0.0 | 0.0 | 0.00 | 0.00 | 0.00 | 72 | 1014.9 |
| 20260831121524 | 74 | 150 | 0.0 | 2.0 | 0.00 | 0.00 | 0.00 | 72 | 1014.7 |
| 20260831120020 | 74 | 221 | 0.0 | 0.0 | 0.00 | 0.00 | 0.00 | 70 | 1014.5 |
| 20260831114509 | 75 | 148 | 0.0 | 1.0 | 0.00 | 0.00 | 0.00 | 69 | 1014.3 |
| 20260831113008 | 76 | 148 | 0.0 | 1.0 | 0.00 | 0.00 | 0.00 | 68 | 1014.1 |
| 20260831111505 | 76 | 148 | 0.0 | 2.0 | 0.00 | 0.00 | 0.00 | 68 | 1013.9 |
| 20260831110003 | 76 | 141 | 1.0 | 3.0 | 0.00 | 0.00 | 0.00 | 67 | 1013.6 |
| 20260831104601 | 76 | 159 | 1.0 | 3.0 | 0.00 | 0.00 | 0.00 | 67 | 1013.5 |
| 20260831104504 | 76 | 169 | 1.0 | 3.0 | 0.00 | 0.00 | 0.00 | 67 | 1013.5 |
| 20260831103104 | 77 | 167 | 0.0 | 3.0 | 0.00 | 0.00 | 0.00 | 66 | 1013.5 |
| 20260831101558 | 77 | 161 | 0.0 | 3.0 | 0.00 | 0.00 | 0.00 | 65 | 1013.3 |
| 20260831094555 | 78 | 123 | 0.0 | 3.0 | 0.00 | 0.00 | 0.00 | 64 | 1013.3 |
| 20260831093054 | 78 | 147 | 1.0 | 3.0 | 0.00 | 0.00 | 0.00 | 63 | 1013.0 |
| 20260831091552 | 79 | 150 | 0.0 | 3.0 | 0.00 | 0.00 | 0.00 | 63 | 1013.0 |
| 20260831090048 | 79 | 142 | 0.0 | 4.0 | 0.00 | 0.00 | 0.00 | 62 | 1013.0 |
| 20260831084552 | 79 | 146 | 0.0 | 2.0 | 0.00 | 0.00 | 0.00 | 62 | 1012.8 |
| 20260831083049 | 80 | 185 | 0.0 | 3.0 | 0.00 | 0.00 | 0.00 | 62 | 1012.7 |
| 20260831081602 | 80 | 148 | 1.0 | 3.0 | 0.00 | 0.00 | 0.00 | 61 | 1012.7 |
| 20260831080042 | 80 | 165 | 1.0 | 3.0 | 0.00 | 0.00 | 0.00 | 61 | 1012.6 |
| 20260831074544 | 81 | 153 | 1.0 | 5.0 | 0.00 | 0.00 | 0.00 | 60 | 1012.7 |
| 20260831073104 | 81 | 152 | 2.0 | 6.0 | 0.00 | 0.00 | 0.00 | 60 | 1012.7 |
| 20260831071537 | 81 | 134 | 0.0 | 3.0 | 0.00 | 0.00 | 0.00 | 59 | 1012.7 |
| 20260831070036 | 82 | 155 | 1.0 | 5.0 | 0.00 | 0.00 | 0.00 | 58 | 1012.7 |
| 20260831064538 | 82 | 159 | 2.0 | 6.0 | 0.00 | 0.00 | 0.00 | 57 | 1012.7 |
| 20260831063030 | 83 | 164 | 2.0 | 7.0 | 0.00 | 0.00 | 0.00 | 56 | 1012.6 |
| 20260831061536 | 83 | 178 | 1.0 | 7.0 | 0.00 | 0.00 | 0.00 | 56 | 1012.6 |
| 20260831060027 | 84 | 107 | 2.0 | 8.0 | 0.00 | 0.00 | 0.00 | 55 | 1012.5 |
| 20260831054525 | 84 | 162 | 2.0 | 6.0 | 0.00 | 0.00 | 0.00 | 54 | 1012.5 |
| 20260831053024 | 84 | 88 | 2.0 | 6.0 | 0.00 | 0.00 | 0.00 | 54 | 1012.3 |
| 20260831051525 | 85 | 169 | 2.0 | 8.0 | 0.00 | 0.00 | 0.00 | 52 | 1012.4 |
| 20260831050035 | 85 | 186 | 2.0 | 7.0 | 0.00 | 0.00 | 0.00 | 51 | 1012.2 |
| 20260831044518 | 85 | 147 | 1.0 | 3.0 | 0.00 | 0.00 | 0.00 | 51 | 1012.1 |
| 20260831043017 | 86 | 146 | 1.0 | 3.0 | 0.00 | 0.00 | 0.00 | 50 | 1012.0 |
| 20260831041517 | 86 | 209 | 0.0 | 4.0 | 0.00 | 0.00 | 0.00 | 49 | 1012.0 |
| 20260831040039 | 87 | 209 | 2.0 | 5.0 | 0.00 | 0.00 | 0.00 | 48 | 1011.8 |
| 20260831034515 | 87 | 157 | 2.0 | 4.0 | 0.00 | 0.00 | 0.00 | 48 | 1011.8 |
| 20260831033019 | 87 | 176 | 1.0 | 4.0 | 0.00 | 0.00 | 0.00 | 47 | 1011.8 |
| 20260831031515 | 88 | 181 | 0.0 | 3.0 | 0.00 | 0.00 | 0.00 | 47 | 1011.7 |
| 20260831030029 | 88 | 180 | 2.0 | 4.0 | 0.00 | 0.00 | 0.00 | 46 | 1011.6 |
| 20260831024516 | 89 | 200 | 0.0 | 3.0 | 0.00 | 0.00 | 0.00 | 46 | 1011.3 |